Location: Lone Tree Crossing
(44.4480°N, 108.7040°W)
Time: 12:56:16
(UTC+00:00)

N. Korean satellite - Visible Passes

Search period start: 24 January 2022 00:00
Search period end: 03 February 2022 00:00
Orbit: 447 x 491 km, 97.3° (Epoch: 23 January)

Date Brightness Start Highest point End Pass type
(mag) Time Alt. Az. Time Alt. Az. Time Alt. Az.
24 Jan 9.7 11:30:56 10° NE 11:32:11 14° ENE 11:32:11 14° ENE visible
24 Jan 7.0 13:02:55 10° N 13:06:15 38° WNW 13:06:15 38° WNW visible
25 Jan 6.5 12:33:34 10° NNE 12:37:10 86° NE 12:37:10 86° NE visible
26 Jan 9.8 00:43:32 10° SW 00:45:26 14° W 00:47:21 10° WNW visible
26 Jan 8.1 12:04:34 10° NNE 12:07:59 36° E 12:08:05 36° ESE visible
26 Jan 8.1 13:38:31 10° NNW 13:40:50 16° WNW 13:42:09 14° W visible
27 Jan 9.4 11:36:10 10° NE 11:38:36 17° E 11:39:01 17° E visible
27 Jan 7.2 13:08:32 10° N 13:11:50 33° WNW 13:13:05 26° WSW visible
28 Jan 6.4 12:39:04 10° N 12:42:43 78° WNW 12:44:02 37° SSW visible
29 Jan 10.0 00:49:30 10° WSW 00:50:56 12° W 00:52:24 10° WNW visible
29 Jan 7.7 12:09:58 10° NNE 12:13:27 43° E 12:15:01 26° SSE visible
29 Jan 8.3 13:44:13 10° NNW 13:46:13 14° WNW 13:48:12 10° W visible
30 Jan 9.2 11:41:21 10° NE 11:44:03 19° E 11:46:02 13° SE visible
30 Jan 7.4 13:14:02 10° N 13:17:12 29° WNW 13:20:06 11° SW visible
31 Jan 6.4 12:44:26 10° N 12:48:04 66° WNW 12:51:16 13° SSW visible
01 Feb 10.3 00:55:36 10° W 00:56:20 10° W 00:57:02 10° WNW visible
01 Feb 7.4 12:15:14 10° NNE 12:18:47 50° E 12:22:17 10° S visible
01 Feb 8.4 13:49:53 10° NW 13:51:29 12° WNW 13:53:03 10° W visible
02 Feb 9.0 11:46:28 10° NE 11:49:22 22° E 11:52:13 10° SSE visible
02 Feb 7.6 13:19:25 10° NNW 13:22:27 25° WNW 13:25:26 10° SW visible
